Regional Weather Roundup
Issued by NWS

Home | Current Version | Previous Version | Graphics & Text | Print | Product List | Glossary On
Versions: 1 2 3 4 5 6 7 8 9 10 11 12 13 14 15 16 17 18 19 20 21 22 23 24 25 26 27 28 29 30 31 32 33 34 35 36 37 38 39 40 41 42 43 44 45 46 47 48 49 50
000
ASUS43 KDTX 221601
RWRMI
MICHIGAN HOURLY REGIONAL WEATHER ROUNDUP
NATIONAL WEATHER SERVICE DETROIT/PONTIAC MI
1200 PM EDT FRI SEP 22 2017

NOTE: "FAIR" INDICATES FEW OR NO CLOUDS BELOW 12,000 FEET WITH NO
SIGNIFICANT WEATHER AND/OR OBSTRUCTION TO VISIBILITY.

MIZ047>049-052>055-059>063-066>070-074>076-081>083-221700-
SOUTHEAST LOWER MICHIGAN

CITY           SKY/WX    TMP DP  RH WIND       PRES   REMARKS
ADRIAN         SUNNY     84  68  58 CALM      30.13S
ALMA           SUNNY     87  65  48 W5        30.11S
ANN ARBOR      SUNNY     85  70  60 CALM      30.12F
BAD AXE        SUNNY     82  66  58 S6        30.13S
CARO           SUNNY     85  68  57 SE5       30.12S
DETROIT CITY   SUNNY     82  66  58 CALM      30.13S
DETROIT        SUNNY     83  69  62 S3        30.13F
FLINT          SUNNY     87  70  56 VRB3      30.13R HX  92
GROSSE ILE     SUNNY     76  68  76 S7        30.12S
HILLSDALE      SUNNY     86  66  51 CALM      30.14S
HOWELL         SUNNY     85  69  59 CALM      30.14R

CITY           SKY/WX    TMP DP  RH WIND       PRES   REMARKS
JACKSON        SUNNY     88  67  49 CALM      30.13S HX  91
LAMBERTVILLE   SUNNY     85  71  62 SE3       30.12R
LANSING        SUNNY     87  69  54 VRB5      30.13R HX  91
LAPEER         FAIR      85  67  54 S3        30.14S
MASON          SUNNY     88  69  54 S5        30.13S HX  92
MONROE         SUNNY     82  67  60 E3        30.12S
PONTIAC        SUNNY     83  68  60 SE3       30.13S
PORT HOPE        N/A     82  67  60 SE6       30.10F
PORT HURON     SUNNY     84  66  54 SE3       30.13S
TRI CITIES     SUNNY     86  71  60 SW3       30.12S HX  91
MIDLAND        FAIR      85  69  57 CALM      30.10S
TROY           SUNNY     83  67  59 CALM      30.15S
SAGINAW HB     SUNNY     84  68  58 CALM      30.11R
$$
MIZ043>046-050>051-056>058-064>065-071>073-077>080-221700-
SOUTHWEST LOWER MICHIGAN

CITY           SKY/WX    TMP DP  RH WIND       PRES   REMARKS
BATTLE CREEK   SUNNY     87  70  56 SW3       30.13S HX  92
BENTON HARBOR  SUNNY     87  65  47 SW7       30.10S
BIG RAPIDS     SUNNY     84  67  56 SW5       30.11R
COLDWATER      SUNNY     87  66  49 CALM      30.13S
FREMONT        FAIR      85  69  58 SW7       30.10R
HOLLAND        SUNNY     89  66  46 W7        30.11R HX  91
GRAND RAPIDS   MOSUNNY   90  67  46 W8        30.11R HX  93
IONIA          FAIR      88  66  47 S5        30.11R HX  90
KALAMAZOO      SUNNY     86  68  54 CALM      30.12S
LUDINGTON      SUNNY     84  68  58 S8        30.07R
MARSHALL       SUNNY     87  68  52 W5        30.13R HX  90
MOUNT PLEASANT SUNNY     88  67  49 SW3       30.10S HX  91
MUSKEGON       MOSUNNY   85  68  56 S9        30.10R
SOUTH HAVEN    SUNNY     89  65  45 W5        30.10S HX  90
$$
MIZ016>042-221700-
NORTHERN LOWER MICHIGAN

CITY           SKY/WX    TMP DP  RH WIND       PRES   REMARKS
ALPENA         SUNNY     84  71  65 S7        30.09R
BEAVER ISLAND  SUNNY     83  69  62 S10G17    30.04S
BELLAIRE       SUNNY     85  67  55 S5        30.06S
CADILLAC       SUNNY     86  67  51 SW5       30.10S
CHARLEVOIX     SUNNY     85  69  57 S7        30.08R
FRANKFORT      SUNNY     86  69  58 S10       30.05S HX  90
GAYLORD        SUNNY     83  67  58 SW10      30.10S
GRAYLING       SUNNY     84  67  56 SW5       30.11S
HARBOR SPRINGS SUNNY     83  68  61 CALM      30.06S
HOUGHTON LAKE  SUNNY     84  68  58 S6        30.12S
MANISTEE       SUNNY     86  71  60 VRB6      30.05S HX  91
OSCODA         SUNNY     84  68  59 SW7       30.10S
PELLSTON       SUNNY     86  69  56 S7        30.06R HX  90
ROGERS CITY    SUNNY     84  71  64 SW8       30.08R
TRAVERSE CITY  MOSUNNY   88  69  53 S5        30.04S HX  92
$$
MIZ007>008-015-221700-
EASTERN UPPER MICHIGAN

CITY           SKY/WX    TMP DP  RH WIND       PRES   REMARKS
KINROSS        SUNNY     81  70  69 SW6       30.06
MACKINAC ISLAN SUNNY     80  69  68 S6        30.05S
NEWBERRY       SUNNY     78  73  84 S9        30.02F
S. S. MARIE    SUNNY     77  69  76 SE6       30.04S
MUNISING         N/A     81  72  74 S8        29.96F
$$
MIZ004>006-011>014-085-221700-
CENTRAL UPPER MICHIGAN

CITY           SKY/WX    TMP DP  RH WIND       PRES   REMARKS
MANISTIQUE     SUNNY     72  66  81 S8        30.02F
ESCANABA       SUNNY     75  69  81 SE9       29.99F
MENOMINEE      SUNNY     83  72  69 SW8       30.00F
SAWYER-GWINN   SUNNY     79  68  69 S15       29.98F
$$
MIZ001>003-009>011-084-221700-
WESTERN UPPER MICHIGAN

CITY           SKY/WX    TMP DP  RH WIND       PRES   REMARKS
IRON MOUNTAIN  CLOUDY    81  68  64 S9        29.98F
HOUGHTON       LGT RAIN  65  62  90 NW18      29.96F
COPPER HARBOR    N/A     70  64  81 N21G37    29.97R
IRONWOOD       TSTM      64  63  94 SE10      30.02R FOG
$$

ABBREVIATIONS USED IN REMARKS
   TC - TEMPERATURE IN CELSIUS
  WCI - WIND CHILL INDEX
   HX - HEAT INDEX
  VSB - VISIBILITY




USA.gov is the U.S. government's official web portal to all federal, state and local government web resources and services.